Regional Weather Roundup
Issued by NWS

Home | Current Version | Previous Version | Graphics & Text | Print | Product List | Glossary On
Versions: 1 2 3 4 5 6 7 8 9 10 11 12 13 14 15 16 17 18 19 20 21 22 23 24 25 26 27 28 29 30 31 32 33 34 35 36 37 38 39 40 41 42 43 44 45 46 47 48 49 50
000
ASUS43 KBIS 162002
RWRND

NORTH DAKOTA REGIONAL WEATHER ROUNDUP
NATIONAL WEATHER SERVICE BISMARCK ND
300 PM CDT WED AUG 16 2017

NOTE: "FAIR" INDICATES FEW OR NO CLOUDS BELOW 12,000 FEET WITH NO
SIGNIFICANT WEATHER AND/OR OBSTRUCTIONS TO VISIBILITY.


NDZ001>003-009>011-017-162100-
NORTHWEST NORTH DAKOTA

CITY           SKY/WX    TMP DP  RH WIND       PRES   REMARKS
WILLISTON      MOSUNNY   79  58  48 VRB3      29.92F
MINOT          SUNNY     79  49  34 NW12      29.92S
MINOT AFB      SUNNY     77  49  36 N9        29.90S
$$

NDZ018>021-031>035-040>046-162100-
SOUTHWEST NORTH DAKOTA

CITY           SKY/WX    TMP DP  RH WIND       PRES   REMARKS
BISMARCK       CLOUDY    77  58  51 N12       29.92F
DICKINSON      MOSUNNY   76  53  44 NW5       29.95S
GARRISON         N/A     77  53  43 N10       29.92S
HETTINGER ARPT MOSUNNY   76  51  41 N8        29.99S
$$

NDZ004>008-012>016-024-026-027-054-162100-
NORTHEAST NORTH DAKOTA

CITY           SKY/WX    TMP DP  RH WIND       PRES   REMARKS
GRAND FORKS    CLOUDY    68  65  90 N5        29.85S
GRND FRKS AFB  CLOUDY    67  64  93 N6        29.86S
DEVILS LAKE    MOSUNNY   72  59  63 N12       29.89S
$$

NDZ022-023-025-028>030-036>039-047>053-162100-
SOUTHEAST NORTH DAKOTA

CITY           SKY/WX    TMP DP  RH WIND       PRES   REMARKS
FARGO          LGT RAIN  68  67  96 NW5       29.83S FOG
JAMESTOWN      CLOUDY    73  62  68 NE12      29.86F
$$





USA.gov is the U.S. government's official web portal to all federal, state and local government web resources and services.